Other Public Products
Issued by NWS Charleston, SC

Home | Current Version | Previous Version | Text Only | Print | Product List | Glossary On
Versions: 1 2 3 4 5 6 7 8 9 10 11 12 13 14 15 16 17 18 19 20 21 22 23 24 25 26 27 28 29 30 31 32 33 34 35 36 37 38 39 40 41 42 43 44 45 46 47 48 49 50
368
FPUS82 KCHS 181727
OPUCHS

TEST...KCHS/KSAV Gateway Observations...TEST
National Weather Service Charleston SC
1200 PM EST THU JAN 18 2018

NOTE: "fair" indicates few or no clouds below 12,000 feet with no
significant weather and/or obstructions to visibility.

SCZ050-WAZ558-NCZ071-TXZ119-213-PAZ071-DCZ001-FLZ074-172-MI076-
NYZ176-178-MAZ016-IL014-TNZ027-NJZ106-GAZ044-MD014-181800-

...Gateway Observations for Charleston International...

CITY           SKY/WX    TMP DP  RH WIND       PRES   REMARKS
Chas Airport   FAIR      39   8  27 NW12      30.38F WCI  32
Seattle        MOCLDY    44  39  82 SE10      29.85R
Charlotte      FAIR      32  14  47 NW5       30.35F WCI  27
Dallas DFW     MOSUNNY   37  11  34 S13       30.51S WCI  29
Dallas Love    MOSUNNY   35  12  38 S10       30.53F WCI  27
Philladelphia  FAIR      31   6  35 W12       30.08F WCI  22
Wash National  FAIR      38   6  26 W10       30.15F WCI  31
Baltimore      FAIR      33  12  41 W17       30.10F WCI  22
Miami          PTSUNNY   57  41  55 N8        30.30F
Detroit        FAIR      23  13  65 SW15      30.10F WCI  10
Newark         FAIR      30   6  36 NW15      30.01F WCI  19
Laguardia      FAIR      30   8  39 NW17      29.98F WCI  18
J F K          FAIR      31   9  39 W16       29.99F WCI  20
Boston Logan   FAIR      28  16  60 W12       29.92F WCI  18
Ft. Lauderdale FAIR      55  44  66 N10       30.30F
Chicago O`Hare PTSUNNY   25  13  60 W16       30.10R WCI  12
Chicago Midway FAIR      27  14  58 SW20      30.10F WCI  13
Houston Bush   PTSUNNY   34  17  50 E5        30.60F WCI  30
Houston Hobby  CLOUDY    32  14  47 E6        30.60S WCI  26
Nashville      FAIR      25  12  58 S3        30.53F
Atlanta        FAIR      31  12  45 NW10      30.42F WCI  22

$$

GAZ044-118-TXZ119-213-NCZ071-DCZ001-MDZ014-506-PAZ021-071-NJZ106-
NYZ176-178-MAZ106-OHZ011-021-055-MIZ076-KYZ091-ILZ014-INZ047-
MNZ060-ONZ431-181800-

...Gateway Observations for Savannah International...

CITY           SKY/WX    TMP DP  RH WIND       PRES   REMARKS
Savannah Arpt  FAIR      40   9  28 N14       30.41F WCI  32
Atlanta        FAIR      31  12  45 NW10      30.42F WCI  22
Charlotte      FAIR      32  14  47 NW5       30.35F WCI  27
Dallas DFW     MOSUNNY   37  11  34 S13       30.51S WCI  29
Houston Bush   PTSUNNY   34  17  50 E5        30.60F WCI  30
Wash National  FAIR      38   6  26 W10       30.15F WCI  31
Wash Dulles    FAIR      37   7  28 NW14      30.13F WCI  28
Baltimore      FAIR      33  12  41 W17       30.10F WCI  22
Philadelphia   FAIR      31   6  35 W12       30.08F WCI  22
Newark         FAIR      30   6  36 NW15      30.01F WCI  19
Laguardia      FAIR      30   8  39 NW17      29.98F WCI  18
J F K          FAIR      31   9  39 W16       29.99F WCI  20
Boston         FAIR      28  16  60 W12       29.92F WCI  18
Pittsburg      FAIR      18   7  62 SW17G25   30.18F WCI   3
Akron          FAIR      19   8  62 SW18G28   30.17F WCI   4
Cleveland      FAIR      22  10  60 SW16      30.18F WCI   8
Cincinnati     FAIR      22  11  62 SW12      30.32F WCI  10
Columbus       SNOW      20  10  64 SW17      30.28F VSB 1/4 WCI   5
Detroit        FAIR      23  13  65 SW15      30.10F WCI  10
Chicago O`Hare PTSUNNY   25  13  60 W16       30.10R WCI  12
Minneapolis    FAIR      32  21  64 SW8       29.88F WCI  25
Indianapolis   FAIR      22  11  62 SW20      30.28F WCI   7
Toronto Canada CLOUDY    19  12  73 SW12G20   30.01  WCI   7

$$




USA.gov is the U.S. government's official web portal to all federal, state and local government web resources and services.